This is the latest recevied weather packets stored in our database for station/object OK5TVR-14. If no packets are shown the sender has not sent any weather packets the latest 10 day(s).
| Time | Temp. | Humidity | Pressure | Rain* | Wind** | Luminosity | Snow |
|---|---|---|---|---|---|---|---|
| 1788344511 | 22.22° C | 55% | 1016.2 hPa | 0 mm | - | 0 W/m² | - |
| 1788343611 | 22.78° C | 54% | 1016.3 hPa | 0 mm | - | 0 W/m² | - |
| 1788342711 | 22.22° C | 55% | 1016.6 hPa | 0 mm | - | 0 W/m² | - |
| 1788341811 | 21.67° C | 56% | 1016.5 hPa | 0 mm | - | 0 W/m² | - |
| 1788340911 | 21.11° C | 58% | 1016.8 hPa | 0 mm | - | 0 W/m² | - |
| 1788340011 | 20.56° C | 60% | 1017 hPa | 0 mm | - | 0 W/m² | - |
| 1788339111 | 20° C | 61% | 1017.1 hPa | 0 mm | - | 0 W/m² | - |
| 1788338211 | 19.44° C | 61% | 1017.2 hPa | 0 mm | - | 0 W/m² | - |
| 1788337311 | 18.89° C | 63% | 1017.1 hPa | 0 mm | - | 0 W/m² | - |
| 1788336411 | 18.33° C | 64% | 1017.2 hPa | 0 mm | - | 0 W/m² | - |
| 1788335511 | 17.22° C | 66% | 1017.4 hPa | 0 mm | - | 0 W/m² | - |
| 1788334611 | 16.67° C | 68% | 1017.5 hPa | 0 mm | - | 0 W/m² | - |
| 1788333711 | 16.11° C | 69% | 1017.7 hPa | 0 mm | - | 0 W/m² | - |
| 1788332811 | 15.56° C | 69% | 1017.8 hPa | 0 mm | - | 0 W/m² | - |
| 1788331911 | 15° C | 70% | 1017.7 hPa | 0 mm | - | 0 W/m² | - |
| 1788331011 | 14.44° C | 71% | 1017.9 hPa | 0 mm | - | 0 W/m² | - |
| 1788330111 | 14.44° C | 71% | 1018.1 hPa | 0 mm | - | 0 W/m² | - |
| 1788329211 | 13.89° C | 71% | 1018.1 hPa | 0 mm | - | 0 W/m² | - |
| 1788328311 | 13.33° C | 71% | 1018 hPa | 0 mm | - | 0 W/m² | - |
| 1788327411 | 13.33° C | 71% | 1018.1 hPa | 0 mm | - | 0 W/m² | - |
| 1788326511 | 12.78° C | 72% | 1018 hPa | 0 mm | - | 0 W/m² | - |
| 1788325611 | 12.78° C | 71% | 1017.9 hPa | 0 mm | - | 0 W/m² | - |
| 1788324711 | 12.78° C | 71% | 1017.8 hPa | 0 mm | - | 0 W/m² | - |
| 1788322911 | 13.33° C | 70% | 1017.7 hPa | 0 mm | - | 0 W/m² | - |
| 1788321111 | 13.33° C | 70% | 1017.5 hPa | 0 mm | - | 0 W/m² | - |
* Rain latest hour (hover to see other rain measurements)
** Current wind speed in m/s (hover to see current wind gust speed)